TimeCST,TemperatureF,Dew PointF,Humidity,Sea Level PressureIn,VisibilityMPH,Wind Direction,Wind SpeedMPH,Gust SpeedMPH,PrecipitationIn,Events,Conditions,WindDirDegrees,DateUTC
12:15 AM,32.0,32.0,100,30.25,10.0,NNW,5.8,-,N/A,,Overcast,340,2012-11-04 05:15:00
12:35 AM,32.0,32.0,100,30.25,10.0,NNW,5.8,-,N/A,,Overcast,330,2012-11-04 05:35:00
12:55 AM,32.0,32.0,100,30.25,10.0,NNW,6.9,-,N/A,,Overcast,330,2012-11-04 05:55:00
1:15 AM,32.0,32.0,100,30.26,10.0,North,4.6,-,N/A,,Overcast,350,2012-11-04 06:15:00
1:35 AM,32.0,32.0,100,30.26,10.0,NNW,4.6,-,N/A,,Overcast,340,2012-11-04 06:35:00
1:55 AM,32.0,32.0,100,30.25,10.0,NNW,5.8,-,N/A,,Overcast,330,2012-11-04 06:55:00
1:15 AM,32.0,32.0,100,30.25,10.0,North,3.5,-,N/A,,Overcast,360,2012-11-04 07:15:00
1:35 AM,32.0,32.0,100,30.24,10.0,NNW,3.5,-,N/A,,Overcast,340,2012-11-04 07:35:00
1:55 AM,32.0,32.0,100,30.24,10.0,North,3.5,-,N/A,,Overcast,10,2012-11-04 07:55:00
2:15 AM,32.0,32.0,100,30.24,10.0,Calm,Calm,-,N/A,,Overcast,0,2012-11-04 08:15:00
2:35 AM,30.2,30.2,100,30.25,10.0,WNW,3.5,-,N/A,,Overcast,300,2012-11-04 08:35:00
2:55 AM,30.2,30.2,100,30.25,9.0,Calm,Calm,-,N/A,,Overcast,0,2012-11-04 08:55:00
3:15 AM,30.2,30.2,100,30.24,10.0,NW,3.5,-,N/A,,Overcast,310,2012-11-04 09:15:00
3:35 AM,30.2,30.2,100,30.23,9.0,NNW,3.5,-,N/A,,Overcast,340,2012-11-04 09:35:00
3:55 AM,30.2,30.2,100,30.23,9.0,Calm,Calm,-,N/A,,Overcast,0,2012-11-04 09:55:00
4:15 AM,28.4,28.4,100,30.23,8.0,NNW,3.5,-,N/A,,Overcast,340,2012-11-04 10:15:00
4:35 AM,28.4,28.4,100,30.23,8.0,NW,3.5,-,N/A,,Overcast,310,2012-11-04 10:35:00
4:55 AM,28.4,28.4,100,30.23,7.0,Calm,Calm,-,N/A,,Overcast,0,2012-11-04 10:55:00
5:15 AM,28.4,28.4,100,30.23,9.0,Calm,Calm,-,N/A,,Overcast,0,2012-11-04 11:15:00
5:35 AM,28.4,28.4,100,30.22,8.0,Calm,Calm,-,N/A,,Overcast,0,2012-11-04 11:35:00
6:15 AM,28.4,28.4,100,30.23,7.0,Calm,Calm,-,N/A,,Overcast,0,2012-11-04 12:15:00
6:35 AM,28.4,28.4,100,30.22,9.0,North,3.5,-,N/A,,Overcast,10,2012-11-04 12:35:00
6:55 AM,30.2,30.2,100,30.22,10.0,Calm,Calm,-,N/A,,Overcast,0,2012-11-04 12:55:00
7:15 AM,28.4,28.4,100,30.22,6.0,Calm,Calm,-,N/A,,Overcast,0,2012-11-04 13:15:00
7:35 AM,28.4,28.4,100,30.21,5.0,Calm,Calm,-,N/A,,Overcast,0,2012-11-04 13:35:00
7:55 AM,28.4,28.4,100,30.21,5.0,Calm,Calm,-,N/A,,Overcast,0,2012-11-04 13:55:00
8:15 AM,28.4,28.4,100,30.21,6.0,Calm,Calm,-,N/A,,Overcast,0,2012-11-04 14:15:00
8:35 AM,30.2,30.2,100,30.22,7.0,Calm,Calm,-,N/A,,Overcast,0,2012-11-04 14:35:00
8:55 AM,30.2,30.2,100,30.21,7.0,Calm,Calm,-,N/A,,Overcast,0,2012-11-04 14:55:00
9:15 AM,30.2,30.2,100,30.21,8.0,Calm,Calm,-,N/A,,Overcast,0,2012-11-04 15:15:00
9:35 AM,32.0,32.0,100,30.21,7.0,Calm,Calm,-,N/A,,Overcast,0,2012-11-04 15:35:00
9:55 AM,32.0,32.0,100,30.21,8.0,Calm,Calm,-,N/A,,Overcast,0,2012-11-04 15:55:00
10:35 AM,32.0,32.0,100,30.21,10.0,Calm,Calm,-,N/A,,Overcast,0,2012-11-04 16:35:00
10:55 AM,32.0,32.0,100,30.21,10.0,Calm,Calm,-,N/A,,Overcast,0,2012-11-04 16:55:00
11:15 AM,32.0,32.0,100,30.21,10.0,Calm,Calm,-,N/A,,Overcast,0,2012-11-04 17:15:00
11:35 AM,32.0,32.0,100,30.21,9.0,Calm,Calm,-,N/A,,Overcast,0,2012-11-04 17:35:00
11:55 AM,32.0,32.0,100,30.21,10.0,NNW,3.5,-,N/A,,Overcast,330,2012-11-04 17:55:00
12:15 PM,32.0,32.0,100,30.21,10.0,Calm,Calm,-,N/A,,Overcast,0,2012-11-04 18:15:00
12:35 PM,32.0,32.0,100,30.20,9.0,ENE,3.5,-,N/A,,Overcast,70,2012-11-04 18:35:00
12:55 PM,32.0,32.0,100,30.20,6.0,NNE,3.5,-,N/A,,Overcast,30,2012-11-04 18:55:00
1:15 PM,32.0,32.0,100,30.20,5.0,Calm,Calm,-,N/A,,Overcast,0,2012-11-04 19:15:00
1:35 PM,32.0,32.0,100,30.20,7.0,Calm,Calm,-,N/A,,Overcast,0,2012-11-04 19:35:00
1:55 PM,32.0,32.0,100,30.20,8.0,Calm,Calm,-,N/A,,Overcast,0,2012-11-04 19:55:00
2:15 PM,32.0,32.0,100,30.20,9.0,NNW,3.5,-,N/A,,Overcast,330,2012-11-04 20:15:00
2:35 PM,32.0,32.0,100,30.20,8.0,NW,3.5,-,N/A,,Overcast,320,2012-11-04 20:35:00
2:55 PM,32.0,32.0,100,30.20,7.0,NNW,3.5,-,N/A,,Overcast,340,2012-11-04 20:55:00
3:15 PM,32.0,32.0,100,30.20,7.0,NNW,3.5,-,N/A,,Overcast,330,2012-11-04 21:15:00
3:35 PM,32.0,32.0,100,30.20,7.0,NNW,3.5,-,N/A,,Mostly Cloudy,340,2012-11-04 21:35:00
3:55 PM,32.0,32.0,100,30.21,7.0,Calm,Calm,-,N/A,,Overcast,0,2012-11-04 21:55:00
4:15 PM,32.0,32.0,100,30.21,7.0,NNW,3.5,-,N/A,,Overcast,330,2012-11-04 22:15:00
4:35 PM,32.0,32.0,100,30.21,7.0,North,3.5,-,N/A,,Overcast,360,2012-11-04 22:35:00
4:55 PM,32.0,32.0,100,30.21,8.0,Calm,Calm,-,N/A,,Overcast,0,2012-11-04 22:55:00
5:15 PM,32.0,32.0,100,30.21,7.0,Calm,Calm,-,N/A,,Overcast,0,2012-11-04 23:15:00
5:35 PM,32.0,32.0,100,30.22,8.0,Calm,Calm,-,N/A,,Overcast,0,2012-11-04 23:35:00
5:55 PM,32.0,32.0,100,30.23,7.0,Calm,Calm,-,N/A,,Overcast,0,2012-11-04 23:55:00
6:15 PM,32.0,32.0,100,30.23,7.0,Calm,Calm,-,N/A,,Overcast,0,2012-11-05 00:15:00
6:35 PM,32.0,32.0,100,30.24,7.0,Calm,Calm,-,N/A,,Overcast,0,2012-11-05 00:35:00
6:55 PM,32.0,32.0,100,30.24,7.0,Calm,Calm,-,N/A,,Overcast,0,2012-11-05 00:55:00
7:15 PM,32.0,32.0,100,30.24,6.0,NNW,3.5,-,N/A,,Overcast,330,2012-11-05 01:15:00
7:35 PM,32.0,32.0,100,30.24,5.0,Calm,Calm,-,N/A,,Overcast,0,2012-11-05 01:35:00
7:55 PM,32.0,32.0,100,30.24,5.0,WNW,3.5,-,N/A,,Overcast,300,2012-11-05 01:55:00
8:15 PM,32.0,32.0,100,30.25,7.0,NW,3.5,-,N/A,,Overcast,310,2012-11-05 02:15:00
8:35 PM,32.0,32.0,100,30.25,7.0,NNW,3.5,-,N/A,,Overcast,330,2012-11-05 02:35:00
8:55 PM,32.0,32.0,100,30.25,6.0,NNW,3.5,-,N/A,,Overcast,340,2012-11-05 02:55:00
9:15 PM,32.0,32.0,100,30.25,6.0,North,3.5,-,N/A,,Overcast,10,2012-11-05 03:15:00
9:35 PM,32.0,32.0,100,30.25,6.0,Calm,Calm,-,N/A,,Overcast,0,2012-11-05 03:35:00
9:55 PM,32.0,32.0,100,30.25,6.0,Calm,Calm,-,N/A,,Overcast,0,2012-11-05 03:55:00
10:15 PM,32.0,32.0,100,30.25,5.0,Calm,Calm,-,N/A,,Overcast,0,2012-11-05 04:15:00
10:35 PM,32.0,32.0,100,30.25,4.0,Calm,Calm,-,N/A,,Overcast,0,2012-11-05 04:35:00